www.pogodaiklimat.ru

Погода и климат >> Архив погоды >> Россия >> Красноярский край >> Норильск


АРХИВ ПОГОДЫ в Норильске

Время (UTC), дата Ветер
(напр.,м/с)
 
Видим.   Явления Облачность Т
(С)
Тd
(С)
f
(%)
Тe
(С)
Тes
(С)
Комфортность P
(гПа)
Po
(гПа)
Тmin
(С)
Tmax
(С)
R
(мм)
R24
(мм)
S
(см)
09 12.07 ЮВ 5
{10}
4000 м слаб. ливневой дождь 10/10 300 м
[Cb cap]
+12.1 +10.8 92 +10 +10 холодно 1006.2 998.5
12 12.07 В 2
{10}
20 км {гроза, ливн. осадки} 8/4 600 м
[Cu Sc Ac cast Ci ing]
+17.8 +13.6 76 +18 +19 тепло 1006.5 999.0 +18.6 12
15 12.07 В 3 10 км гроза, ливневой дождь 10/10 600 м
[Cb cap]
+15.9 +14.0 88 +15 +15 тепло 1007.2 999.6
18 12.07 Ю 3 20 км {гроза, ливн. осадки} 8/4 600 м
[Sc Ac cast Ci ing]
+17.2 +12.7 75 +17 +17 тепло 1007.5 999.9
21 12.07 В 2 50 км 8/6 600 м
[Cu Sc Ac cast Ci sp]
+16.7 +11.8 73 +17 +17 тепло 1008.1 1000.5
00 13.07 СВ 3 50 км 8/4 600 м
[Sc Ac lent]
+16.6 +12.6 77 +16 +17 тепло 1008.0 1000.4 +13.9 1
03 13.07 ЮЗ 7-10
{10}
50 км 9/8 600 м
[Cu Sc Ac trans]
+18.5 +11.8 65 +18 +19 тепло 1007.9 1000.4
06 13.07 З 4
{10}
50 км 10/8 600 м
[Sc Ac und]
+15.2 +10.3 73 +14 +15 по сезону 1009.0 1001.4
09 13.07 З 4 50 км 10/8 600 м
[Sc Ac und]
+12.2 +8.4 78 +10 +11 холодно 1010.6 1002.9
12 13.07 З 3 10 км 10/8 600 м
[Sc Ac und]
+12.0 +9.2 83 +10 +10 холодно 1011.6 1003.9 +18.7
15 13.07 С 2 20 км {морось} 10/8 600 м
[Sc Ac As]
+11.3 +8.3 82 +10 +10 прохладно 1012.5 1004.7
18 13.07 СЗ 1 20 км {морось} 8/5 600 м
[Sc Ac trans Cc]
+10.1 +7.6 84 +10 +10 по сезону 1014.5 1006.6
21 13.07 З 2 10 км 9/5 300 м
[St Ac As Ci]
+10.5 +9.5 94 +9 +9 по сезону 1016.1 1008.2
00 14.07 З 3 10 км 8/4 600 м
[Sc Ac trans Ci]
+12.3 +9.3 82 +11 +12 по сезону 1016.7 1008.9 +9.8 0.0
03 14.07 З 3 20 км 4/3 600 м
[Sc Ac trans]
+14.9 +9.3 69 +14 +18 тепло 1017.8 1010.1
06 14.07 З 3 50 км 4/3 600 м
[Cu hum Ci]
+17.3 +10.6 65 +17 +23 тепло 1017.8 1010.1
09 14.07 СЗ 4 10 км дым 4/3 600 м
[Cu hum Ci]
+20.1 +12.1 60 +22 +25 комфорт 1016.9 1009.3
12 14.07 СЗ 2 50 км 9/3 600 м
[Cu hum Ac trans]
+20.2 +12.0 59 +23 +24 комфорт 1016.9 1009.3 +20.9
15 14.07 СЗ 3 50 км 8/3 600 м
[Sc Ac trans Ci fib]
+18.8 +11.3 62 +20 +20 тепло 1016.4 1008.8
18 14.07 З 2 50 км 8/4 600 м
[Sc Ac trans Ci fib]
+16.9 +12.6 76 +17 +17 тепло 1016.5 1008.8
21 14.07 В 1 50 км 8/0 2000 м
[Ac trans Ci fib]
+13.2 +12.1 93 +13 +13 тепло 1016.7 1008.9
00 15.07 ЮВ 2 20 км 9/6 600 м
[Sc Ac trans]
+15.0 +12.8 87 +15 +15 тепло 1016.1 1008.4 +13.0
03 15.07 Ю 3 4000 м дождь 10/10 600 м
[Sc]
+14.5 +12.9 90 +14 +14 тепло 1016.4 1008.7
06 15.07 В 6
{12}
20 км {дождь} 9/6 600 м
[Sc Ac trans]
+16.6 +13.6 82 +16 +16 тепло 1014.7 1007.0
09 15.07 В 6
{10}
50 км 8/5 600 м
[Sc Ac trans]
+19.8 +14.3 71 +21 +22 комфорт 1013.5 1005.9
12 15.07 В 5 50 км 6/3 600 м
[Sc Ac trans Ci sp]
+22.0 +13.4 58 +25 +26 комфорт 1013.1 1005.5 +22.1 5
15 15.07 СВ 4 50 км 8/0 2000 м
[Ac trans Ci fib]
+22.5 +14.4 60 +26 +26 жарко 1012.7 1005.1
18 15.07 Ю 6-11
{12}
20 км 8/6 600 м
[Cu Sc Ac trans Ci fib]
+23.9 +13.3 51 +26 +26 жарко 1012.3 1004.9
21 15.07 ЮЗ 3
{13}
20 км 8/3 600 м
[Cu Sc Ac trans Ci fib]
+23.1 +14.5 58 +27 +27 душно 1012.3 1004.9
00 16.07 С 3 20 км 6/4 600 м
[Cu Sc Ac trans]
+20.6 +15.2 71 +24 +25 комфорт 1013.4 1005.8 +20.0
03 16.07 В 2 20 км 9/5 600 м
[Cu hum Ci]
+24.1 +17.2 65 +28 +31 душно 1013.2 1005.7
06 16.07 ЮЗ 4 10 км 10/4 600 м
[Cu hum Ac cuf Cc]
+27.5 +19.0 60 +33 +35 очень
душно
1012.6 1005.2
09 16.07 СЗ 4 20 км 10/6 600 м
[Cu med, cong Ac cast Cc]
+24.5 +18.2 68 +29 +30 душно 1013.6 1006.1
12 16.07 СЗ 3 50 км 8/4 600 м
[Sc diur, vesp Ac trans Ci sp]
+23.1 +16.0 64 +28 +28 душно 1014.2 1006.7 +29.1
15 16.07 СЗ 3 50 км 3/0 2000 м
[Ac trans]
+20.0 +13.6 67 +22 +23 комфорт 1015.3 1007.7
18 16.07 З 3 50 км 3/0 2000 м
[Ac lent]
+16.3 +13.3 82 +16 +16 тепло 1016.2 1008.5
21 16.07 З 4 50 км 3/0 2000 м
[Ac trans Ci fib]
+14.3 +12.3 88 +13 +13 тепло 1016.7 1009.0
00 17.07 З 4 50 км 3/0
[Ci fib]
+15.6 +12.7 83 +15 +16 тепло 1017.2 1009.5 +14.1
03 17.07 З 4 50 км 3/0
[Ci fib]
+18.6 +12.3 67 +19 +24 тепло 1017.5 1009.8
06 17.07 СЗ 3 50 км 3/0
[Ci fib]
+22.6 +14.1 59 +26 +34 жарко 1016.7 1009.1
09 17.07 ЮВ 2 50 км ясно +26.3 +11.9 41 +28 +35 жарко 1015.8 1008.3
12 17.07 В 3 50 км ясно +26.4 +11.1 38 +27 +30 жарко 1015.4 1007.9 +26.9
15 17.07 СЗ 3 50 км ясно +21.9 +13.6 59 +25 +25 комфорт 1015.0 1007.4
18 17.07 штиль 0 50 км ясно +17.4 +12.8 74 +17 +17 тепло 1015.3 1007.6
21 17.07 ЮВ 4 50 км ясно +17.7 +10.9 64 +17 +18 тепло 1016.4 1008.7
00 18.07 ЮВ 8-13
{13}
50 км ясно +19.8 +9.3 51 +20 +21 тепло 1016.3 1008.7 +16.4
03 18.07 ЮВ 8-12
{13}
50 км ясно +21.7 +8.2 42 +23 +24 комфорт 1017.0 1009.4
06 18.07 ЮВ 5
{12}
50 км ясно +23.8 +8.8 38 +24 +30 комфорт 1017.1 1009.6
09 18.07 В 4 50 км ясно +25.5 +9.8 37 +26 +31 жарко 1016.6 1009.1
12 18.07 В 3 50 км ясно +25.5 +11.2 41 +27 +29 жарко 1016.4 1008.9 +25.7
15 18.07 В 2 50 км ясно +23.7 +13.0 51 +26 +26 жарко 1016.9 1009.4
18 18.07 ЮВ 3 50 км ясно +19.6 +8.5 49 +21 +21 комфорт 1018.4 1010.8
21 18.07 В 4 50 км ясно +15.9 +8.2 60 +15 +15 тепло 1020.5 1012.8
00 19.07 В 5 50 км ясно +18.2 +8.6 53 +18 +19 тепло 1021.4 1013.7 +15.8
03 19.07 ЮВ 7-11
{11}
50 км ясно +21.6 +10.0 48 +23 +25 комфорт 1021.4 1013.8
06 19.07 ЮВ 7-10
{11}
50 км ясно +23.7 +11.3 46 +25 +28 комфорт 1020.5 1013.0

 

Местоположение метеостанции Норильск (Красноярский край, Россия): широта 69.33 долгота 88.30 высота над уровнем моря 65 м.

В архиве по умолчанию представлена погода в Норильске за последнюю неделю. Архивные данные за месяц целиком и за предыдущие месяцы, начиная с января 2011 года, Вы можете получить, выбрав интересующий диапазон дат из раскрывающегося списка и нажав кнопку "Ввод!".


*Определитесь, кто Вы:
робот инопланетянин человек

Внимание! Время в таблицах - всемирное. Для получения местного времени необходимо прибавить поправку, которая равна 7 ч.

Смотрите также архив погоды в соседних городах и на ближайших метеорологических станциях:

Погода в Потапово (Красноярский край, Россия) (110 км)
Погода в Снежногорске (Красноярский край, Россия) (138 км)
Погода в Крестах Таймырских (Красноярский край, Россия) (181 км)
Погода в Горбиачине (Красноярский край, Россия) (207 км)
Погода в Карауле (Красноярский край, Россия) (215 км)
Погода в Игарке (Красноярский край, Россия) (219 км)
Погода в Светлогорске (Красноярский край, Россия) (265 км)
Погода в Волочанке (Красноярский край, Россия) (297 км)
Погода в Курейке (Красноярский край, Россия) (321 км)
Погода в Советской Речке (Красноярский край, Россия) (336 км)

Пояснения к столбцам:

Ветер - указаны скорость ветра в м/с - средняя за 10 мин, порывы в срок и между сроками (в фигурных скобках) и направление, откуда дует ветер: С - северный, СВ - северо-восточный, В - восточный, ЮВ - юго-восточный, Ю - южный, ЮЗ - юго-западный, З - западный, СЗ - северо-западный.
Видимость - горизонтальная дальность видимости в метрах или километрах. При видимости от 1 до 10 км при отсутствии осадков обычно наблюдается дымка, при ухудшении видимости до 1 км и менее - туман. В сухую погоду видимость может ухудшаться дымом, пылью или мглою.
Явления - указаны атмосферные явления, наблюдавшиеся в срок или в последний час перед сроком; фигурными скобками обозначены явления, наблюдавшиеся между сроками (за 1-3 часа до срока); квадратными скобками обозначены град или гололедные отложения с указанием их диаметра в мм.
Облачность - указаны через наклонную черту общая и нижняя облачность в баллах и высота нижней границы облаков в метрах; квадратными скобками обозначены формы облаков: Ci - перистые, Cs - перисто-слоистые, Cc - перисто-кучевые, Ac - высококучевые, As - высокослоистые, Sc - слоисто-кучевые, Ns - слоисто-дождевые, Cu - кучевые, Cb - кучево-дождевые. Подробнее классификацию облаков см. в Атласе облаков (PDF).
T - Температура воздуха - температура, измеренная на высоте 2 м над землей.
Td - Температура точки росы - температура, при понижении до которой содержащийся в воздухе водяной пар достигнет насыщения.
f - Относительная влажность воздуха - влажноcть воздуха, измеренная на высоте 2 м над землей.
Te - Эффективная температура - температура, которую ощущает одетый по сезону человек в тени. Характеристика душности погоды. При расчете учитывается влияние влажности воздуха и скорости ветра на теплоощущения человека.
Tes - Эффективная температура на солнце - температура, которую ощущает человек, с поправкой на солнечный нагрев. Характеристика знойности погоды. Зависит от высоты солнца над горизонтом, облачности и скорости ветра. Ночью, в пасмурную погоду, а также при ветре 12 м/с и более поправка равна нулю.
P - Атмосферное давление - приведенное к уровню моря атмосферное давление.
Po - Атмосферное давление - измеренное на уровне метеостанции атмосферное давление.
Tmin - Минимальная температура - минимум температуры воздуха на высоте 2 м над землей.
Tmax - Максимальная температура - максимум температуры воздуха на высоте 2 м над землей.
R - Количество осадков - Количество выпавших осадков за период времени, мм. При наведении курсора мыши на число - период времени, за который выпало указанное количество осадков.
R24 - Количество осадков - Количество выпавших осадков за 24 часа, мм.
S - Снежный покров - Высота снежного покрова, см. При наведении курсора мыши на число - состояние снежного покрова и степень покрытия местности в баллах.